Probability
3 3 3 1 1 2 4 6 7 5 4 3 3 3 3 4 4 5 6 6 6 4 2 2 3 2 1 0 1 3 2 1 0 1 1 0 0 0 0 0 0 0 0
2 2 2 1 1 2 5 6 5 4 3 3 3 3 3 4 4 5 6 6 6 5 3 3 3 2 1 1 2 3 2 1 0 1 1 0 0 0 0 0 0 0 0
1 1 1 1 0 2 4 6 5 4 3 3 3 3 3 3 4 5 6 6 6 5 5 4 3 2 2 2 3 3 3 1 0 1 1 0 0 0 0 0 0 0 0
0 0 0 0 0 1 4 5 5 4 4 3 3 3 3 3 3 4 6 6 6 6 4 3 2 3 3 3 3 3 2 1 0 0 0 0 0 0 0 0 0 0 0
0 0 0 1 2 2 4 5 5 4 3 3 3 3 3 3 4 4 6 6 6 4 2 1 2 3 4 3 3 3 1 1 0 0 0 0 0 0 0 0 0 0 0
1 1 2 3 4 6 6 5 5 4 3 3 3 3 3 4 4 5 6 6 4 2 1 0 1 2 3 3 3 2 1 0 0 0 0 0 0 0 0 0 0 0 0
4 5 5 5 6 8 9 7 6 5 4 4 3 3 3 4 4 5 6 6 4 3 1 0 0 1 2 3 2 1 0 0 0 0 0 0 0 0 0 0 0 0 0
6 7 7 6 7 9 11 9 8 7 6 5 4 3 3 3 4 4 6 6 6 4 2 2 1 0 1 2 1 0 0 0 0 0 0 0 0 0 0 0 0 0 0
5 5 6 6 7 10 12 11 10 9 8 6 5 4 3 3 3 4 5 6 6 4 3 2 1 1 1 1 0 0 0 0 0 0 0 0 0 0 0 0 0 0 0
5 5 5 5 6 9 11 11 10 10 9 8 7 6 4 4 3 4 5 6 5 4 3 1 1 1 1 1 0 0 0 0 0 0 0 0 0 0 0 1 1 2 2
5 5 6 5 5 7 9 10 10 10 10 9 8 7 5 5 4 4 6 6 4 3 2 1 0 0 0 0 0 0 0 0 0 0 0 0 0 0 1 3 4 5 5
4 5 6 6 6 6 7 8 9 9 9 9 8 7 6 6 5 5 6 6 4 1 1 1 1 0 0 1 1 1 0 0 0 0 0 0 0 1 2 4 5 6 6
2 4 6 7 7 6 6 7 7 9 9 8 7 6 5 5 5 5 5 6 4 2 1 2 2 1 1 1 2 2 1 0 0 0 0 0 0 1 3 3 4 4 4
2 3 5 6 7 6 6 6 6 6 7 6 6 5 3 2 2 2 4 5 5 5 4 3 3 3 2 2 3 2 1 0 0 0 1 1 1 2 3 3 3 3 3
3 4 5 6 6 6 7 6 4 4 4 4 4 3 1 0 1 2 3 4 5 6 6 5 5 5 3 3 2 1 0 0 1 1 2 2 3 3 3 3 3 3 4
5 5 6 7 8 8 7 5 3 2 2 2 2 2 1 0 2 4 4 4 4 5 6 6 6 6 5 3 1 1 1 2 2 3 3 3 4 4 4 3 3 3 3
7 7 7 8 8 7 5 3 1 1 1 1 1 1 1 1 3 5 6 6 5 4 5 6 7 7 5 3 1 1 3 5 5 4 4 4 4 5 6 5 3 3 3
8 8 9 9 8 6 4 2 1 0 0 0 1 2 3 4 6 7 8 8 7 7 7 7 8 8 6 3 1 1 5 8 8 7 6 5 4 5 6 6 4 4 4
7 8 9 11 10 8 7 4 2 1 0 0 2 4 6 7 8 9 9 10 10 10 9 9 9 8 7 4 1 1 5 9 10 8 6 4 3 3 4 4 4 4 4
8 9 10 11 11 11 10 8 5 3 1 1 4 7 8 9 11 12 11 12 12 11 10 10 8 7 6 3 1 2 6 9 9 7 4 2 2 2 2 2 3 3 3
10 11 11 11 12 13 12 11 9 6 4 4 6 8 9 11 14 15 16 16 15 13 11 9 8 6 5 2 0 1 5 7 7 6 4 3 1 1 0 1 2 2 1
11 12 12 13 15 15 14 14 13 12 10 9 10 11 11 12 15 17 18 18 17 15 13 11 9 8 6 4 1 1 3 4 5 7 6 3 1 0 0 0 1 1 0
12 12 12 14 16 17 14 13 14 15 14 12 11 11 10 11 14 17 17 17 16 16 15 13 11 10 9 8 5 2 1 2 4 6 6 2 0 0 0 0 0 0 0
14 13 12 14 16 16 14 12 13 15 16 13 10 9 9 9 12 15 16 15 14 15 15 15 15 14 13 12 10 6 3 3 4 4 3 1 0 0 0 0 0 0 0
12 11 12 15 15 15 15 16 17 18 18 15 10 8 9 9 9 11 13 13 14 13 11 13 15 16 15 14 12 9 5 5 5 4 2 1 0 0 0 0 0 0 0
9 10 13 16 17 17 17 19 22 21 21 16 10 8 9 9 7 8 9 10 11 10 8 9 13 15 14 13 10 7 6 6 6 5 3 1 0 0 1 1 1 0 0
Wind_Speed
5 4 4 5 5 4 4 4 4 4 4 2 2 2 1 1 1 1 1 2 2 2 2 2 2 2 2 2 3 3 4 3 3 3 3 3 3 3 2 2 2 2 2
4 4 5 5 5 5 5 5 4 4 4 3 2 2 2 1 1 1 1 1 2 2 2 2 2 2 2 3 3 3 3 2 1 2 2 1 2 2 2 2 1 2 1
8 6 6 5 5 5 6 6 5 5 4 4 3 3 2 2 1 1 1 1 1 1 2 2 2 2 3 3 3 3 4 2 1 1 2 2 1 0 2 2 1 1 1
7 7 7 6 7 7 5 5 5 5 4 5 4 4 3 2 1 1 1 1 1 1 2 2 2 2 2 3 3 3 2 3 2 1 1 1 2 2 0 1 1 1 0
9 9 9 8 7 6 6 5 5 4 4 5 5 4 2 2 1 1 1 1 1 1 1 2 2 2 2 3 3 3 2 2 2 2 1 2 1 1 2 1 1 1 0
9 8 7 6 6 6 6 5 5 4 4 5 5 4 4 4 3 2 1 1 0 1 0 1 1 2 2 3 3 3 3 3 3 2 2 2 2 2 2 2 1 1 1
8 8 8 8 8 8 7 7 6 5 5 5 5 4 5 5 5 3 3 2 1 1 1 1 1 1 2 2 2 3 3 3 3 3 2 2 2 2 3 2 1 1 0
8 9 9 9 9 9 8 7 7 6 5 5 5 4 4 4 3 3 3 3 2 2 1 1 1 1 2 2 2 2 2 2 2 2 2 2 2 2 3 3 3 1 0
8 8 8 8 9 9 9 9 8 6 5 5 4 4 4 4 3 3 3 2 2 2 2 2 2 1 1 2 2 2 2 2 2 2 2 1 1 2 2 3 3 3 2
6 7 7 8 8 8 8 8 7 7 6 5 5 5 4 4 4 3 3 3 2 2 2 2 2 1 1 2 2 1 1 2 1 1 1 1 1 1 2 3 2 2 2
7 7 6 6 6 6 7 8 7 6 6 6 5 4 4 4 3 3 3 3 2 2 2 2 2 2 1 2 2 2 2 2 1 1 1 1 1 1 2 2 2 2 2
6 6 6 6 6 7 7 8 7 7 7 6 5 4 4 4 4 4 3 3 2 2 2 2 2 2 2 2 2 2 2 2 2 1 2 1 1 2 2 2 2 2 2
4 5 5 6 7 7 7 7 7 7 6 6 5 5 4 5 5 4 3 3 3 3 2 2 2 2 2 2 2 2 2 2 2 2 2 2 2 2 2 2 2 1 1
5 5 5 6 6 6 6 6 6 6 6 6 6 5 5 5 4 3 3 3 3 3 3 3 2 2 2 2 2 2 2 2 2 2 2 2 3 3 3 2 2 2 2
5 6 6 5 6 6 6 6 6 6 6 6 6 5 4 4 4 4 3 3 3 4 3 3 2 2 2 2 3 3 3 2 2 1 1 2 2 3 3 3 3 3 3
6 7 7 6 7 7 7 7 7 7 7 7 6 5 4 4 4 4 4 3 3 3 3 3 3 2 2 2 4 4 3 2 2 1 1 1 2 3 4 4 5 5 5
6 7 8 7 7 7 7 8 7 7 7 6 5 5 5 4 3 3 3 3 3 2 2 2 2 2 2 3 4 4 3 2 2 2 1 1 1 2 2 2 3 4 5
6 6 6 6 6 6 6 6 6 6 7 6 6 5 5 5 4 4 3 3 2 2 2 2 2 2 2 3 3 4 3 2 2 2 2 2 1 1 2 2 2 2 3
5 5 5 5 5 6 6 7 6 6 6 6 6 6 6 6 5 5 4 3 3 2 2 2 2 2 1 2 3 4 2 2 2 2 2 2 2 2 3 2 2 2 2
3 4 5 5 5 5 6 7 6 6 6 6 6 5 6 6 6 5 4 3 3 3 2 1 1 2 2 2 3 4 2 2 1 1 1 2 2 2 3 3 3 3 3
3 4 5 5 5 5 6 6 6 6 5 4 4 5 5 5 5 4 3 3 3 3 2 2 1 1 1 2 3 3 2 2 2 1 1 1 2 2 3 3 3 5 3
4 5 5 4 4 5 6 6 5 4 4 4 4 4 4 4 4 4 4 3 4 3 2 1 1 1 1 2 3 4 4 3 2 2 2 2 2 3 3 3 3 3 2
3 4 5 4 3 4 5 6 4 4 5 5 4 4 4 3 4 4 4 3 3 3 3 2 2 2 1 1 2 4 4 4 3 2 2 2 2 2 2 2 3 2 2
3 3 5 5 3 3 4 4 4 5 6 5 4 4 4 3 3 3 3 3 3 3 3 2 2 2 2 2 2 2 2 2 2 1 1 1 1 1 1 1 1 2 2
3 3 4 5 4 4 4 4 4 6 6 5 4 4 3 3 3 2 2 3 3 4 4 3 3 3 3 4 4 3 3 2 2 1 0 0 0 1 1 1 1 2 2
3 3 3 3 3 3 3 3 4 5 6 5 4 3 3 3 2 2 1 1 1 2 3 4 4 3 4 4 4 5 4 4 4 3 1 1 2 3 3 3 2 2 3
Wind_Direction
209 182 174 166 154 155 153 152 144 140 129 117 111 102 86 68 79 86 102 120 116 117 125 126 109 106 110 114 115 110 104 94 102 95 72 49 52 57 56 72 82 83 89
191 186 172 165 167 169 168 162 161 157 156 144 131 128 120 99 85 72 77 101 126 136 141 140 132 126 120 114 114 114 109 107 105 109 108 71 27 28 42 59 89 87 81
192 191 180 178 173 178 179 178 175 168 162 146 114 93 73 57 59 74 71 60 97 111 115 135 138 137 137 137 140 140 136 142 122 98 131 141 181 12 19 34 53 67 72
190 186 181 183 185 188 180 174 171 168 162 151 147 148 152 164 188 160 131 71 85 111 132 140 142 143 142 145 157 142 141 139 148 104 80 118 146 148 130 7 34 54 77
190 191 189 186 187 181 175 172 165 167 163 162 164 159 159 164 130 109 112 75 38 51 100 136 142 149 155 158 155 144 145 144 152 150 135 104 82 109 148 191 318 357 358
192 193 187 171 173 170 169 166 166 174 169 168 166 167 170 164 151 154 155 129 56 24 53 141 146 154 159 166 165 162 160 159 157 162 164 160 160 168 157 172 215 266 324
187 185 181 179 176 173 175 173 172 179 175 172 175 177 176 173 176 177 175 169 177 204 221 166 158 166 168 167 158 160 169 168 171 178 185 185 185 164 156 154 168 200 303
187 188 187 186 184 180 177 173 178 184 180 179 182 175 171 173 181 183 175 181 195 207 202 170 174 182 165 159 151 157 175 168 177 188 184 185 191 174 168 167 158 151 207
187 188 186 185 183 179 179 179 179 181 183 183 176 173 177 178 182 181 176 182 194 197 184 177 175 175 163 155 150 159 169 163 179 185 182 186 188 180 181 173 169 164 184
182 182 184 186 183 180 177 175 178 181 178 175 180 184 187 187 179 170 181 181 187 186 181 184 180 176 153 147 145 146 151 148 171 179 167 171 176 165 166 169 173 173 172
183 182 182 182 177 169 169 174 175 173 176 179 180 181 183 180 175 176 187 183 180 184 192 181 179 179 164 150 139 138 134 140 144 145 147 160 155 154 165 163 164 162 156
179 175 170 165 169 173 176 178 178 181 184 177 170 179 171 165 175 186 192 179 181 186 193 181 171 181 182 159 153 156 145 148 154 153 141 154 139 141 159 157 158 161 161
165 159 158 165 173 177 180 179 180 183 175 164 168 177 175 174 183 190 183 173 177 182 178 172 179 192 187 167 167 160 151 151 157 156 157 166 142 139 139 138 142 155 148
163 162 168 172 174 176 177 173 175 169 166 164 170 184 190 186 185 181 177 176 176 179 180 175 183 196 192 182 170 156 153 149 151 154 162 171 171 175 168 161 163 155 140
170 176 176 174 169 167 168 168 168 163 161 162 175 191 189 173 169 173 180 183 186 188 183 173 177 187 188 194 177 171 168 166 162 153 167 186 183 177 179 176 174 165 162
181 179 177 172 171 171 170 166 169 166 158 165 179 180 170 168 173 174 176 178 185 182 172 174 174 177 200 182 173 166 166 170 176 183 202 208 201 194 191 186 180 174 176
185 184 183 181 180 179 173 172 174 164 162 169 172 169 168 171 179 171 161 173 181 174 173 184 174 182 197 180 173 172 166 174 188 193 206 230 234 199 196 182 182 196 196
186 189 185 184 181 171 165 162 158 160 165 170 174 174 171 173 169 162 170 175 167 169 182 187 183 180 202 180 174 169 169 183 212 208 203 210 239 218 191 178 188 216 224
184 181 176 171 165 163 162 154 156 161 167 177 182 181 176 174 171 177 185 179 167 177 185 175 178 186 218 190 181 164 161 182 222 221 201 200 219 228 189 173 198 243 262
150 150 143 138 148 159 154 154 161 164 179 188 185 175 172 173 178 184 182 172 170 184 178 169 172 189 220 208 187 171 168 183 219 249 230 213 221 215 184 187 200 236 259
132 135 134 136 148 151 150 155 161 181 191 177 162 161 167 172 172 171 169 163 166 164 162 162 172 196 221 213 198 182 178 195 209 227 245 249 238 236 219 210 219 233 242
122 135 135 136 137 142 145 151 167 174 154 150 152 158 161 166 163 160 162 160 161 160 162 162 213 244 232 211 210 201 204 199 202 232 242 244 230 230 230 228 247 243 227
120 130 132 130 128 136 143 149 163 146 140 139 145 147 143 148 152 159 162 156 160 170 180 185 210 243 245 233 216 210 215 210 207 235 242 249 235 223 226 246 245 211 205
123 126 133 134 139 144 141 155 153 146 140 141 142 140 142 145 144 147 154 160 174 185 187 196 215 232 245 246 226 216 219 219 223 249 264 247 200 206 241 254 216 209 210
121 135 149 151 156 156 151 151 149 144 141 138 135 138 143 148 146 149 165 179 200 198 189 204 205 209 238 246 224 206 214 214 213 180 136 92 278 276 272 266 254 233 219
111 116 129 137 146 151 146 144 148 144 141 142 145 147 145 146 148 143 97 49 181 200 201 206 206 227 232 232 217 214 216 206 174 154 211 242 243 247 251 254 259 250 241